User: anonymous   Login
Location: Unspecified
(0.0000°N, 0.0000°E)
Time: 15:16:44
(UTC+00:00)
Language:

Tiros 10 - Orbit

View from above orbital plane
View from above orbital plane
View from above satellite
View from above satellite

Ground track
Ground track

The orbit data is extracted from the following two-line orbital elements,

1 01430U 65051A   21289.32542739  .00000034  00000-0  23766-4 0  9997
2 01430  98.3497  47.5381 0056873 161.2570 199.0730 14.40324774950390
Epoch (UTC): 16 October 2021 07:48:36
Eccentricity: 0.0056873
inclination: 98.3497°
perigee height: 717 km
apogee height: 798 km
right ascension of ascending node: 47.5381°
argument of perigee: 161.2570°
revolutions per day: 14.40324774
mean anomaly at epoch: 199.0730°
orbit number at epoch: 95039

The dashed part of the orbit path shows where the satellite is in the earth's shadow,  

DLR